Regional Weather Roundup
Issued by NWS

Home | Current Version | Previous Version | Text Only | Print | Product List | Glossary Off
Versions: 1 2 3 4 5 6 7 8 9 10 11 12 13 14 15 16 17 18 19 20 21 22 23 24 25 26 27 28 29 30 31 32 33 34 35 36 37 38 39 40 41 42 43 44 45 46 47 48 49 50

000
ASUS43 KDTX 261910
RWRMI
MICHIGAN HOURLY REGIONAL WEATHER ROUNDUP
NATIONAL WEATHER SERVICE DETROIT/PONTIAC MI
200 PM EST MON JAN 26 2015

NOTE: "FAIR" INDICATES FEW OR NO CLOUDS BELOW 12,000 FEET WITH NO
SIGNIFICANT WEATHER AND/OR OBSTRUCTION TO VISIBILITY.

MIZ047>049-052>055-059>063-066>070-074>076-081>083-262000-
SOUTHEAST LOWER MICHIGAN

CITY           SKY/WX    TMP DP  RH WIND       PRES   REMARKS
ADRIAN         SUNNY     23   7  50 NE3       29.90F
ALMA           SUNNY     20   9  63 NE3       29.92F
ANN ARBOR      SUNNY     25   7  46 N3        29.89F
BAD AXE        MOSUNNY   19  13  77 NE9       29.93F
DETROIT CITY   SUNNY     26   9  48 N8        29.90F
DETROIT        MOSUNNY   25   8  48 NE5       29.90F
FLINT          SUNNY     27   9  46 VRB5      29.91F
GROSSE ILE     SUNNY     21  10  63 NE10      29.89F
HILLSDALE      MOSUNNY   22   7  51 CALM      29.86F
HOWELL         SUNNY     22   7  52 N3        29.88F

CITY           SKY/WX    TMP DP  RH WIND       PRES   REMARKS
JACKSON        MOSUNNY   23   6  48 CALM      29.88F
LAMBERTVILLE   SUNNY     25   9  50 CALM      29.90F
LANSING        SUNNY     22   7  52 CALM      29.91F
LAPEER         NOT AVBL
MASON          MOSUNNY   21  10  62 CALM      29.89F
MONROE         SUNNY     23   9  54 N7        29.88F
MT. CLEMENS    MOSUNNY   24  11  58 N13       29.87F
PONTIAC        PTSUNNY   24   9  52 NE7       29.87F
PORT HOPE        N/A     20  14  77 E13       29.93F
PORT HURON     SUNNY     21  12  68 NE9G17    29.91F
TRI CITIES     MOSUNNY   22   8  55 NE6       29.94F
YPSILANTI      SUNNY     28   8  43 NE7       29.90F
$$
MIZ043>046-050>051-056>058-064>065-071>073-077>080-262000-
SOUTHWEST LOWER MICHIGAN

CITY           SKY/WX    TMP DP  RH WIND       PRES   REMARKS
BATTLE CREEK   MOSUNNY   24   6  46 CALM      29.89F
BENTON HARBOR  CLOUDY    22  11  62 SE5       29.91F
BIG RAPIDS     PTSUNNY   22   9  57 SE7       29.89F
COLDWATER      MOSUNNY   22   7  52 CALM      29.88F
HOLLAND        MOSUNNY   23   9  55 E5        29.91F
GRAND RAPIDS   PTSUNNY   22   9  57 E3        29.91F
KALAMAZOO      MOSUNNY   22   5  48 CALM      29.90F
MARSHALL       PTSUNNY   22   6  52 CALM      29.88F
MUSKEGON       CLOUDY    22   5  48 E3        29.93F
$$
MIZ016>042-262000-
NORTHERN LOWER MICHIGAN

CITY           SKY/WX    TMP DP  RH WIND       PRES   REMARKS
ALPENA         MIX PCPN  20  10  65 E12       29.97F
BEAVER ISLAND  CLOUDY    19  12  72 CALM      29.94F
BELLAIRE       MOSUNNY   23   8  51 SE5       29.94F
CADILLAC       MOSUNNY   19   8  63 SE6       29.86F
CHARLEVOIX     MOSUNNY   20  10  66 E7        29.97S
FRANKFORT      MOCLDY    22  10  59 SE3       29.92F
GAYLORD        MOSUNNY   19   7  59 VRB5      29.89F
GRAYLING       MOSUNNY   21   8  56 E3        29.90F
HARBOR SPRINGS MOSUNNY   21   9  58 E8        29.94F
HOUGHTON LAKE  MOSUNNY   21   6  52 VRB3      29.90F
MANISTEE       PTSUNNY   21   9  58 CALM      29.92F
OSCODA         FLURRIES  22  15  75 E6        29.95F
PELLSTON       MOSUNNY   20  10  65 SE7       29.95F
TRAVERSE CITY  CLOUDY    24   9  52 SE5       29.92F
$$
MIZ007>008-015-262000-
EASTERN UPPER MICHIGAN

CITY           SKY/WX    TMP DP  RH WIND       PRES   REMARKS
KINROSS        MOSUNNY   18  10  73 SE10      29.96F
MACKINAC ISLAN CLOUDY    19  14  80 E6        29.95F
NEWBERRY       CLOUDY    18  10  72 S13G18    29.93S
S. S. MARIE    LGT SNOW  13   5  70 E10       29.98S WCI   0
$$
MIZ004>006-011>014-085-262000-
CENTRAL UPPER MICHIGAN

CITY           SKY/WX    TMP DP  RH WIND       PRES   REMARKS
MANISTIQUE     CLOUDY    23  15  73 SE13G18   29.91S
ESCANABA       CLOUDY    23  19  86 S6        29.87S VSB 1
MENOMINEE      PTSUNNY   25  19  80 S9        29.85F
SAWYER-GWINN   CLOUDY    21  14  73 S15       29.81F
$$
MIZ001>003-009>011-084-262000-
WESTERN UPPER MICHIGAN

CITY           SKY/WX    TMP DP  RH WIND       PRES   REMARKS
IRON MOUNTAIN  LGT SNOW  21  15  78 S9        29.79F
HOUGHTON       CLOUDY    21  14  74 S10       29.74F
COPPER HARBOR    N/A     24  15  68 SW13G21   29.79F
IRONWOOD       CLOUDY    21  16  79 S6        29.67S
$$

ABBREVIATIONS USED IN REMARKS
   TC - TEMPERATURE IN CELSIUS
  WCI - WIND CHILL INDEX
   HX - HEAT INDEX
  VSB - VISIBILITY



USA.gov is the U.S. government's official web portal to all federal, state and local government web resources and services.